Location: Rio Negrinho
(26.2394°S, 49.4999°W)
Time: 14:04:43
(UTC+00:00)

Cosmos 2123 Rocket - Pass Details

Date: 07 June 2020
Orbit: 961 x 992 km, 82.9° (Epoch: 07 July)

Event Time Altitude Azimuth Distance (km) Brightness Sun altitude
Rises 08:00:35 0° 5° (N) 3,641 7.2 -26.2°
Reaches altitude 10° 08:03:06 10° 8° (N) 2,698 6.6 -25.7°
Maximum altitude 08:09:11 63° 88° (E) 1,073 4.4 -24.4°
Drops below altitude 10° 08:15:19 10° 167° (SSE) 2,717 6.3 -23.0°
Sets 08:17:51 0° 170° (S) 3,669 7.0 -22.5°
